Weather History for Corpus Christi, TX

Change the Weather History Date:

Monday, May 6, 2013

  Actual Average Record
Temperature  
Mean Temperature 71 °F 76 °F  
Max Temperature 83 °F 85 °F 93 °F (2009)
Min Temperature 59 °F 68 °F 52 °F (1944)
Degree Days  
Heating Degree Days 0 0  
Month to date heating degree days 1 0  
Since 1 July heating degree days 529 898  
Cooling Degree Days 6 12  
Month to date cooling degree days 35 67  
Year to date cooling degree days 578 495  
Growing Degree Days 20 (Base 50)    
Moisture  
Dew Point 55 °F    
Average Humidity 60    
Maximum Humidity 84    
Minimum Humidity 36    
Precipitation  
Precipitation T in 0.09 in 4.11 in (1912)
Month to date precipitation T 0.51  
Year to date precipitation 3.33 7.71  
Snow  
Snow 0.00 in - - ()
Month to date snowfall 0.0  
Since 1 July snowfall 0.0  
Snow Depth 0.00 in    
Sea Level Pressure  
Sea Level Pressure 30.05 in    
Wind  
Wind Speed 7 mph (ESE)    
Max Wind Speed 20 mph    
Max Gust Speed 22 mph    
Visibility 10 miles    
Events      
T = Trace of Precipitation, MM = Missing Value Source: NWS Daily Summary

Daily Weather History Graph

Daily Weather History Graph

Search for Another Location

Airport:

Trip Planner

Search our weather history database for the weather conditions in past years. The results will help you decide how hot, cold, wet, or windy it might be!

Date:

Astronomy

May. 06, 2013 Rise Set
Actual Time 6:46 AM CDT 8:07 PM CDT
Civil Twilight 6:21 AM CDT 8:32 PM CDT
Nautical Twilight 5:51 AM CDT 9:02 PM CDT
Astronomical Twilight 5:20 AM CDT 9:33 PM CDT
Moon 4:32 AM CDT (5/6) 5:21 PM CDT (5/6)
Length of Visible Light 14h 10m
Length of Day
13h 20m
Waning Crescent, 11% of the Moon is Illuminated
May 6
Waning Crescent
May 9
New
May 17
First Quarter
May 24
Full
May 31
Last Quarter

Hourly Weather History & Observations

Time (CDT) Temp. Heat Index Dew Point Humidity Pressure Visibility Wind Dir Wind Speed Gust Speed Precip Events Conditions
12:51 AM 63.0 °F - 53.1 °F 70% 30.08 in 10.0 mi SE 3.5 mph - N/A   Clear
1:51 AM 62.1 °F - 53.1 °F 72% 30.07 in 10.0 mi SSE 3.5 mph - N/A   Clear
2:51 AM 62.1 °F - 55.0 °F 78% 30.05 in 10.0 mi SSE 3.5 mph - N/A   Clear
3:51 AM 61.0 °F - 55.0 °F 81% 30.05 in 10.0 mi Calm Calm - N/A   Clear
4:51 AM 61.0 °F - 55.9 °F 83% 30.04 in 10.0 mi ESE 3.5 mph - N/A   Clear
5:51 AM 60.1 °F - 55.0 °F 83% 30.05 in 10.0 mi Calm Calm - N/A   Partly Cloudy
6:51 AM 62.1 °F - 57.9 °F 86% 30.06 in 10.0 mi Calm Calm - N/A   Partly Cloudy
7:51 AM 68.0 °F - 61.0 °F 78% 30.08 in 10.0 mi Calm Calm - N/A   Partly Cloudy
8:51 AM 72.0 °F - 61.0 °F 68% 30.09 in 10.0 mi East 3.5 mph - N/A   Partly Cloudy
9:51 AM 75.0 °F - 57.9 °F 55% 30.10 in 10.0 mi ENE 3.5 mph - N/A   Partly Cloudy
10:51 AM 79.0 °F - 57.0 °F 47% 30.12 in 10.0 mi NNE 4.6 mph - N/A   Scattered Clouds
11:51 AM 81.0 °F 81.0 °F 57.0 °F 44% 30.10 in 10.0 mi East 9.2 mph - N/A   Partly Cloudy
12:51 PM 80.1 °F - 51.1 °F 36% 30.07 in 10.0 mi ENE 12.7 mph - N/A   Partly Cloudy
1:51 PM 81.0 °F - 52.0 °F 36% 30.05 in 10.0 mi East 12.7 mph - N/A   Partly Cloudy
2:51 PM 80.1 °F - 52.0 °F 38% 30.03 in 10.0 mi ESE 17.3 mph - N/A   Partly Cloudy
3:51 PM 79.0 °F - 52.0 °F 39% 30.00 in 10.0 mi ESE 12.7 mph - N/A   Partly Cloudy
4:51 PM 77.0 °F - 54.0 °F 45% 30.01 in 10.0 mi SE 10.4 mph - 0.00 in   Scattered Clouds
5:51 PM 78.1 °F - 54.0 °F 43% 29.99 in 10.0 mi ESE 12.7 mph - N/A   Scattered Clouds
6:51 PM 77.0 °F - 54.0 °F 45% 29.98 in 10.0 mi SE 16.1 mph - N/A   Scattered Clouds
7:51 PM 73.9 °F - 55.0 °F 52% 30.00 in 10.0 mi SE 13.8 mph - N/A   Scattered Clouds
8:51 PM 73.0 °F - 57.0 °F 57% 30.01 in 10.0 mi SSE 10.4 mph - N/A   Scattered Clouds
9:51 PM 71.1 °F - 57.0 °F 61% 30.01 in 10.0 mi SE 11.5 mph - N/A   Partly Cloudy
10:51 PM 68.0 °F - 55.9 °F 65% 30.04 in 10.0 mi South 4.6 mph - 0.00 in   Partly Cloudy
11:51 PM 66.0 °F - 55.0 °F 68% 30.03 in 10.0 mi South 8.1 mph - N/A   Partly Cloudy